Regional Weather Roundup
Issued by NWS

Home | Current Version | Previous Version | Graphics & Text | Print | Product List | Glossary On
Versions: 1 2 3 4 5 6 7 8 9 10 11 12 13 14 15 16 17 18 19 20 21 22 23 24 25 26 27 28 29 30 31 32 33 34 35 36 37 38 39 40 41 42 43 44 45 46 47 48 49 50
000
ASUS43 KMKX 281800
RWRWI

WISCONSIN REGIONAL WEATHER ROUNDUP
NATIONAL WEATHER SERVICE MILWAUKEE/SULLIVAN WI
1200 PM CST WED JAN 28 2015

NOTE: "FAIR" INDICATES FEW OR NO CLOUDS BELOW 12,000 FEET WITH NO
SIGNIFICANT WEATHER AND/OR OBSTRUCTIONS TO VISIBILITY.

WIZ001-002-006>008-014>016-023>028-281900-
NORTHWEST WISCONSIN

CITY           SKY/WX    TMP DP  RH WIND       PRES   REMARKS
SUPERIOR ARPT  CLOUDY    29  24  81 S7        29.96F WCI  22
ASHLAND        FAIR      31  23  72 S7        29.98F WCI  24
6HR MIN TEMP:  22; 6HR MAX TEMP:  32;

HAYWARD        CLOUDY    27  23  85 S9        29.95F FOG     WCI  18
6HR MIN TEMP:  23; 6HR MAX TEMP:  27;

SIREN          CLOUDY    28  23  80 S14       29.96S HAZE    WCI  17
CUMBERLAND     CLOUDY    27  23  86 SE13      29.96F FOG     WCI  16
RICE LAKE      CLOUDY    27  24  88 SE17      29.99F FOG     WCI  14
CHETEK         CLOUDY    27  24  87 SE10      29.99F FOG     WCI  17
LADYSMITH      CLOUDY    28  24  86 SE12G17   30.02F FOG     WCI  18
EAU CLAIRE     NOT AVBL
MENOMONIE      CLOUDY    28  25  86 SE15      30.00F FOG     WCI  17
NEW RICHMOND   CLOUDY    28  24  86 SE13      29.97S FOG     WCI  17
OSCEOLA        CLOUDY    28  25  87 SE15      29.99S FOG     WCI  17
$$

WIZ003>005-009-010-017-018-281900-
NORTH CENTRAL WISCONSIN

CITY           SKY/WX    TMP DP  RH WIND       PRES   REMARKS
MANITOWISH WTR CLOUDY    24  21  89 S12G20    30.00F WCI  13
ARBOR VITAE    CLOUDY    25  22  86 S10       30.01F WCI  15
WOODRUFF       CLOUDY    25  22  86 S10       30.01F WCI  15
RHINELANDER    CLOUDY    25  19  78 S10       30.03F WCI  15
6HR MIN TEMP:  22; 6HR MAX TEMP:  25;

EAGLE RIVER    CLOUDY    25  19  78 S13G18    30.03F WCI  13
LAND O LAKES   CLOUDY    27  22  83 S9        30.02F WCI  17
PHILLIPS       CLOUDY    25  22  89 SE9       29.99F FOG     WCI  15
TOMAHAWK       CLOUDY    26  21  82 CALM      30.04F
MEDFORD        CLOUDY    24  21  88 SE13G20   30.03F FOG     WCI  12
MERRILL        PTSUNNY   28  21  74 SE8       30.05F WCI  20
$$

WIZ029-030-035-036-043>047-281900-
CENTRAL WISCONSIN

CITY           SKY/WX    TMP DP  RH WIND       PRES   REMARKS
WAUSAU         SUNNY     26  20  77 SE15      30.05F WCI  14
6HR MIN TEMP:  24; 6HR MAX TEMP:  26;

MOSINEE        CLOUDY    27  21  80 S12       30.09S WCI  16
MARSHFIELD     CLOUDY    25  22  88 S17       30.04F FOG     WCI  12
6HR MIN TEMP:  24; 6HR MAX TEMP:  25;

STEVENS POINT  CLOUDY    24  19  81 S10       30.10F WCI  14
WAUPACA        PTSUNNY   31  21  66 S10       30.13F WCI  22
WAUTOMA        NOT AVBL
WISC RAPIDS    CLOUDY    26  20  77 S10       30.09F WCI  16
6HR MIN TEMP:  24; 6HR MAX TEMP:  26;

CAMP DOUGLAS   NOT AVBL
$$

WIZ011>013-019>022-031-037>040-048>050-281900-
NORTHEAST WISCONSIN

CITY           SKY/WX    TMP DP  RH WIND       PRES   REMARKS
ANTIGO         PTSUNNY   25  20  81 S17       30.06F WCI  11
SHAWANO        PTSUNNY   31  19  61 S9        30.14F WCI  23
OCONTO         PTSUNNY   29  22  73 MISG      30.16F
STURGEON BAY   CLOUDY    28  21  74 S9        30.17F WCI  20
6HR MIN TEMP:  18; 6HR MAX TEMP:  28;

GREEN BAY      PTSUNNY   30  22  72 S12       30.14F WCI  20
6HR MIN TEMP:  17; 6HR MAX TEMP:  30;

MANITOWOC      NOT AVBL
APPLETON       CLOUDY    28  19  69 S13G21    30.13F WCI  18
CLINTONVILLE   PTSUNNY   30  19  64 S12G18    30.13F WCI  21
OSHKOSH        PTSUNNY   29  20  69 S13       30.14F WCI  19
6HR MIN TEMP:  22; 6HR MAX TEMP:  29;

$$

WIZ032>034-041-042-053>061-281900-
SOUTHWEST WISCONSIN

CITY           SKY/WX    TMP DP  RH WIND       PRES   REMARKS
LA CROSSE      CLOUDY    30  25  81 SE14      30.03F HAZE    WCI  19
6HR MIN TEMP:  27; 6HR MAX TEMP:  30;

SPARTA         CLOUDY    28  24  85 S9        30.07F FOG     WCI  19
VIROQUA        CLOUDY    27  27 100 SE15      30.03F WCI  15
BOSCOBEL       PTSUNNY   32  24  72 VRB7      30.07F WCI  26
6HR MIN TEMP:  28; 6HR MAX TEMP:  32;

PRAIRIE DU CHI FAIR      32  23  69 SE15G25   30.05F WCI  22
PLATTEVILLE    FAIR      31  24  74 SE13      30.08F WCI  21
$$

WIZ056-057-062-063-064-067-068-281900-
SOUTH CENTRAL WISCONSIN

CITY           SKY/WX    TMP DP  RH WIND       PRES   REMARKS
REEDSBURG      CLOUDY    27  24  89 S9        30.11F FOG     WCI  17
BARABOO/DELLS  CLOUDY    27  24  89 S12       30.11F FOG     WCI  16
LONE ROCK      CLOUDY    30  24  78 SE7       30.11F HAZE    WCI  23
MINERAL POINT  FAIR      32  25  74 SE17G23   30.07F WCI  21
MADISON        CLOUDY    29  21  72 S17       30.12F WCI  17
6HR MIN TEMP:  21; 6HR MAX TEMP:  29;

MIDDLETON      FAIR      31  22  68 S10G20    30.13F WCI  23
WATERTOWN      MOSUNNY   31  20  64 S13G18    30.14F WCI  21
MONROE         FAIR      30  25  80 SE17      30.10F WCI  18
JANESVILLE     SUNNY     32  21  64 S17       30.14F WCI  21
$$

WIZ051-052-058>065-066-070>072-281900-
SOUTHEAST WISCONSIN

CITY           SKY/WX    TMP DP  RH WIND       PRES   REMARKS
MILWAUKEE      PTSUNNY   33  19  56 S14       30.17F WCI  23
6HR MIN TEMP:  22; 6HR MAX TEMP:  33;

WAUKESHA       SUNNY     28  19  69 SE14      30.16F WCI  17
MILWAUKEE/TIMM SUNNY     32  18  55 S13       30.17F WCI  22
RACINE         MOSUNNY   31  17  56 S15       30.18F WCI  20
6HR MIN TEMP:  18; 6HR MAX TEMP:  31;

BURLINGTON     PTSUNNY   30  18  61 S13       30.16F WCI  20
KENOSHA        MOSUNNY   33  17  51 S12       30.16F WCI  24
6HR MIN TEMP:  19; 6HR MAX TEMP:  33;

FOND DU LAC    PTSUNNY   30  20  66 S14       30.14F WCI  19
6HR MIN TEMP:  21; 6HR MAX TEMP:  30;

SHEBOYGAN      PTSUNNY   30  23  75 S15       30.16F WCI  19
6HR MIN TEMP:  15; 6HR MAX TEMP:  31;

WEST BEND      PTSUNNY   32  21  64 SE12      30.15F WCI  23
JUNEAU         MOSUNNY   28  20  71 S14       30.15F WCI  17
$$

LSZ147-162-281900-
LAKE SUPERIOR

STATION/POSITION TIME  TEMP    WIND        PRES    WAVE
                       AIR SEA DIR/SP/G            HT/PER
                 (UTC) (F)     (DEG/KT/KT) (MB)    (FT/S)
DEVILS ISLAND    1700   28     160/  7/ 10 1017.1F
PORT WING        1700   29     170/  4/  8 1015.6
SAXON HARBOR     1720   31     140/  1/ 14 1015.6F
$$

LMZ867-665-643>646-281900-
LAKE MICHIGAN

STATION/POSITION TIME  TEMP    WIND        PRES    WAVE
                       AIR SEA DIR/SP/G            HT/PER
                 (UTC) (F)     (DEG/KT/KT) (MB)    (FT/S)
NORTHPORT PIER   1707   29     170/  3/  8 1022.7F
SISTER BAY       1613   30     220/  9/ 10   N/A
KEWAUNEE LAKESHO 1700   29     190/  8/  9 1021.8
SHEBOYGAN LAKESH 1700   30     190/ 15/ 17 1024.0F
PORT WASHINGTON  1720   32     170/ 14/ 24 1023.0F
MILWAUKEE LAKESH 1700   29     180/ 12/ 15   N/A
KENOSHA   LAKESH 1700   29     170/ 14/ 16 1023.4F
$$

TC  - TEMPERATURE IN CELSIUS
VSB - VISIBILITY IN STATUTE MILES
WCI - WIND CHILL INDEX
HX  - HEAT INDEX




USA.gov is the U.S. government's official web portal to all federal, state and local government web resources and services.